User: anonymous   Login
Location: Unspecified
(0.0000°N, 0.0000°E)
Time: 19:23:29
(UTC+00:00)
Language:

COMPASS 1 - Orbit

View from above orbital plane
View from above orbital plane
View from above satellite
View from above satellite

Ground track
Ground track

The orbit data is extracted from the following two-line orbital elements,

1 32787U 08021E   19341.53458807  .00000119  00000-0  16422-4 0  9996
2 32787  97.5067 345.7333 0012451   5.2143 354.9205 14.93501872630297
Epoch (UTC): 07 December 2019 12:49:48
Eccentricity: 0.0012451
inclination: 97.5067°
perigee height: 578 km
apogee height: 596 km
right ascension of ascending node: 345.7333°
argument of perigee: 5.2143°
revolutions per day: 14.93501872
mean anomaly at epoch: 354.9205°
orbit number at epoch: 63029

The dashed part of the orbit path shows where the satellite is in the earth's shadow,  

DLR